Regional Weather Roundup
Issued by NWS

Home | Current Version | Previous Version | Graphics & Text | Print | Product List | Glossary On
Versions: 1 2 3 4 5 6 7 8 9 10 11 12 13 14 15 16 17 18 19 20 21 22 23 24 25 26 27 28 29 30 31 32 33 34 35 36 37 38 39 40 41 42 43 44 45 46 47 48 49 50
000
ASUS43 KFSD 172202
RWRSD

WEATHER ROUNDUP FOR SOUTH DAKOTA
NATIONAL WEATHER SERVICE SIOUX FALLS SD
500 PM CDT TUE OCT 17 2017

NOTE: "FAIR" INDICATES FEW OR NO CLOUDS BELOW 12,000 FEET WITH NO
SIGNIFICANT WEATHER AND/OR OBSTRUCTIONS TO VISIBILITY.


SDZ001>005-009-010-012>017-172300-
NORTHWEST AND NORTH CENTRAL SOUTH DAKOTA

CITY           SKY/WX    TMP DP  RH WIND       PRES   REMARKS
BUFFALO          N/A     78  16   9 SW18      29.77F
FAITH            N/A     79  20  11 S13       29.84F
MOBRIDGE       SUNNY     82  29  14 SW15      29.78F
$$

SDZ012>016-024>037-041>051-057-063-072>074-172300-
SOUTHWEST AND SOUTH CENTRAL SOUTH DAKOTA

CITY           SKY/WX    TMP DP  RH WIND       PRES   REMARKS
RAPID CTY ARPT SUNNY     77  24  14 SE14      29.87F
PIERRE         SUNNY     78  37  22 SE10      29.84F
CUSTER         SUNNY     66  13  12 W17G23    30.01S
ELLSWORTH AFB  SUNNY     77  26  15 SE14      29.86F
PHILIP         SUNNY     79  31  17 S12       29.84F
PINE RIDGE     SUNNY     78  20  11 SW8       29.93F
SPEARFISH      FAIR      73  27  17 NE3       29.92S
WINNER         FAIR      73  39  29 S8        29.90F
$$

SDZ004>011-016>023-039-040-172300-
NORTHEAST SOUTH DAKOTA

CITY           SKY/WX    TMP DP  RH WIND       PRES   REMARKS
ABERDEEN       SUNNY     79  36  21 SW10      29.83F
WATERTOWN      SUNNY     72  42  34 SW14      29.88F
BROOKINGS      SUNNY     75  38  26 SW13      29.91F
SISSETON         N/A     75  42  30 SW14      29.82F
$$

SDZ017-020-022-023-036>040-048>070-172300-
SOUTHEAST SOUTH DAKOTA

CITY           SKY/WX    TMP DP  RH WIND       PRES   REMARKS
SIOUX FALLS    SUNNY     77  42  28 S8        29.93F
HURON          SUNNY     77  42  28 SW10      29.87F
MITCHELL       SUNNY     79  37  22 S9        29.90F
YANKTON        SUNNY     78  37  22 SW6       29.94F
$$

ABBREVIATIONS USED IN REMARKS
   TC - TEMPERATURE IN CELSIUS
  WCI - WIND CHILL INDEX
   HX - HEAT INDEX
  VSB - VISIBILITY





USA.gov is the U.S. government's official web portal to all federal, state and local government web resources and services.